Location: Spring Creek
(38.2870°N, 100.2160°W)
Time: 11:56:42
(UTC+00:00)

Cosmos 2369 - Pass Details

Date: 08 May 2021
Orbit: 840 x 855 km, 71.0° (Epoch: 22 June)

Event Time Altitude Azimuth Distance (km) Brightness Sun altitude
Exits shadow 10:13:48 20° 213° (SSW) 1,874 4.9 -14.8°
Maximum altitude 10:17:50 70° 293° (WNW) 906 3.7 -14.2°
Drops below altitude 10° 10:23:33 10° 18° (NNE) 2,493 7.0 -13.3°
Sets 10:26:02 0° 21° (NNE) 3,433 7.9 -12.9°
